Home > Weather > Samsun > Past weeks

Flag for Turkey Weather for the Past 2 Weeks in Samsun, Turkey

Now
70 °F

Broken clouds.


Feels Like: 70 °F
Forecast: 58 / 68 °F
Wind: 15 mph from South

Location: Samsun / Carsamba

Current Time: Feb 13, 2016 at 11:29:19 AM

Latest Report: Feb 13, 2016 at 10:50 AM


Visibility: N/A

Pressure: 29.89 "Hg

Humidity: 33%

Dew point: 39 °F

Location of SamsunLocation

Historic Weather in Samsun — Graph

°F

Samsun Temperature Yesterday

Maximum temperature yesterday: 68 °F (at 1:50 PM)
Minimum temperature yesterday: 43 °F (at 1:50 AM)
Average temperature yesterday: 52 °F

High & Low Weather Summary for the Past Weeks

 TemperatureHumidityPressure
High72 °F (Feb 4, 1:50 PM)100% (Jan 29, 5:50 PM)30.45 "Hg (Jan 29, 5:50 PM)
Low28 °F (Feb 9, 4:50 AM)19% (Feb 4, 3:50 PM)29.74 "Hg (Feb 5, 2:50 PM)
Average48 °F64%30.14 "Hg
* Reported Jan 29 9:50 AM — Feb 13 9:50 AM, Samsun, Weather by CustomWeather, © 2016

Note: Actual official high and low records may vary slightly from our data, if they occured in-between our weather recording intervals... More about our weather records

Advertising

Samsun Weather History for the Previous 24 Hours

 ConditionsComfort  
Time TempWeatherWind HumidityBarometerVisibility
9:50 AM
Sat, Feb 13
70 °FBroken clouds.16 mph33%29.92 "HgN/A
8:50 AM66 °FPartly sunny.12 mph37%29.92 "HgN/A
7:50 AM63 °FPartly sunny.8 mph45%29.95 "HgN/A
6:50 AM61 °FBroken clouds.10 mph45%29.95 "HgN/A
5:50 AM61 °FPartly cloudy.12 mph48%29.98 "HgN/A
4:50 AM63 °FPartly cloudy.12 mph45%29.98 "HgN/A
3:50 AM63 °FPartly cloudy.12 mph45%29.98 "HgN/A
2:50 AM55 °FPartly cloudy.2 mph63%30.01 "HgN/A
1:50 AM48 °FPassing clouds.3 mph87%30.01 "HgN/A
12:50 AM46 °FPassing clouds.1 mph87%30.04 "HgN/A
11:50 PM
Fri, Feb 12
45 °FPassing clouds.2 mph81%30.04 "HgN/A
10:50 PM48 °FPassing clouds.1 mph82%30.04 "HgN/A
9:50 PM48 °FPassing clouds.3 mph82%30.04 "HgN/A
8:50 PM52 °FPassing clouds.3 mph77%30.04 "HgN/A
7:50 PM54 °FPartly cloudy.2 mph72%30.04 "HgN/A
6:50 PM55 °FPartly cloudy.5 mph67%30.01 "HgN/A
5:50 PM55 °FPartly cloudy.2 mph67%30.01 "HgN/A
4:50 PM57 °FBroken clouds.3 mph67%30.01 "HgN/A
3:50 PM64 °FBroken clouds.7 mph46%29.98 "HgN/A
2:50 PM64 °FBroken clouds.3 mph49%29.98 "HgN/A
1:50 PM68 °FBroken clouds.14 mph38%29.95 "HgN/A
12:50 PM64 °FBroken clouds.10 mph46%29.98 "HgN/A
11:50 AM63 °FBroken clouds.14 mph49%29.98 "HgN/A
Weather by CustomWeather, © 2016

See weather overviewHow to use our weather pages